Location: Bear Valley Community Church - Hurst
(32.8460°N, 97.1828°W)
Time: 01:57:10
(UTC+00:00)

OAO 2 Rocket - Pass Details

Date: 14 July 2022
Orbit: 675 x 745 km, 35.0° (Epoch: 07 August)

Event Time Altitude Azimuth Distance (km) Brightness Sun altitude
Exits shadow 10:19:38 18° 210° (SSW) 1,727 4.8 -13.5°
Maximum altitude 10:22:55 36° 153° (SSE) 1,104 4.2 -13.0°
Drops below altitude 10° 10:27:32 10° 87° (E) 2,156 6.8 -12.2°
Sets 10:30:04 0° 79° (E) 3,063 7.9 -11.8°
